Location: Unspecified
(50.7693°N, 0.0000°E)
Time: 04:55:15
(UTC+00:00)

A-11 Canister half - Pass Details

Date: 21 June 2019
Orbit: 1526 x 1683 km, 47.3° (Epoch: 19 July)

Event Time Altitude Azimuth Distance (km) Brightness Sun altitude
Rises 11:23:24 0° 287° (WNW) 4,681 11.4 61.7°
Reaches altitude 10° 11:26:55 10° 277° (W) 3,697 11.0 61.8°
Maximum altitude 11:34:30 29° 222° (SW) 2,507 10.9 62.2°
Drops below altitude 10° 11:42:11 10° 167° (SSE) 3,737 11.6 62.4°
Sets 11:45:46 0° 157° (SSE) 4,739 12.0 62.5°
